Regional Weather Roundup
Issued by NWS

Home | Current Version | Previous Version | Text Only | Print | Product List | Glossary Off
Versions: 1 2 3 4 5 6 7 8 9 10 11 12 13 14 15 16 17 18 19 20 21 22 23 24 25 26 27 28 29 30 31 32 33 34 35 36 37 38 39 40 41 42 43 44 45 46 47 48 49 50

000
ASUS43 KLMK 261202
RWRKY
KENTUCKY REGIONAL WEATHER ROUNDUP
NATIONAL WEATHER SERVICE LOUISVILLE KY
800 AM EDT TUE SEP 26 2017

NOTE "FAIR" INDICATES FEW OR NO CLOUDS BELOW 12,000 FEET
WITH NO SIGNIFICANT WEATHER AND/OR OBSTRUCTIONS TO VISIBILITY.

KYZ001>023-026-027-061>063-070>075-261300-
WESTERN AND SOUTH CENTRAL KENTUCKY

CITY           SKY/WX    TMP DP  RH WIND       PRES   REMARKS
PADUCAH        CLEAR     64  61  90 CALM      29.99R FOG
HENDERSON      CLEAR     63  63 100 CALM      30.00R FOG
OWENSBORO      CLEAR     67  65  93 CALM      30.01R FOG
HOPKINSVILLE   CLEAR     67  66  96 CALM      30.00R
BOWLING GREEN  FOG       64  64 100 CALM      30.02R VSB 1/2
GLASGOW          N/A    N/A N/A N/A CALM      30.02R FOG
$$

KYZ024-025-028>034-038-045-046-053-261300-
NORTH CENTRAL KENTUCKY

CITY           SKY/WX    TMP DP  RH WIND       PRES   REMARKS
LOUISVILLE/SDF CLEAR     69  66  90 CALM      30.02R FOG
LOUISVILLE/LOU CLEAR     65  65 100 CALM      30.03R FOG
FORT KNOX      CLEAR     64  64 100 CALM      30.01R
$$

KYZ035>037-039>044-047>052-055>060-089>105-261300-
NORTHEAST KENTUCKY

CITY           SKY/WX    TMP DP  RH WIND       PRES   REMARKS
LEXINGTON      CLEAR     62  59  90 SE3       30.04R
COVINGTON      CLEAR     64  64 100 CALM      30.03R
FRANKFORT      MOCLDY    62  58  86 CALM      30.02S
$$

KYZ054-064>069-076>088-106>120-261300-
SOUTHEAST KENTUCKY

CITY           SKY/WX    TMP DP  RH WIND       PRES   REMARKS
JACKSON        CLEAR     64  62  93 CALM      30.05R
LONDON         CLEAR     59  56  89 CALM      30.05R
SOMERSET       NOT AVBL
MIDDLESBORO    FOG       60  60 100 W3        30.07S VSB 1/2
MONTICELLO     MOSUNNY   56  56 100 NE8       30.06R
$$





USA.gov is the U.S. government's official web portal to all federal, state and local government web resources and services.